Location: ???????
(55.4362°N, 38.1183°E)
Time: 17:42:20
(UTC+00:00)

Cosmos 2333 Rocket - Pass Details

Date: 27 October 2021
Orbit: 837 x 865 km, 70.8° (Epoch: 04 December)

Event Time Altitude Azimuth Distance (km) Brightness Sun altitude
Rises 16:04:18 0° 186° (S) 3,392 5.4 -18.2°
Reaches altitude 10° 16:06:51 10° 179° (S) 2,465 4.6 -18.5°
Maximum altitude 16:12:06 41° 111° (ESE) 1,219 2.5 -19.3°
Enters shadow 16:13:39 34° 75° (ENE) 1,378 2.8 -19.5°
